TimeMST,TemperatureF,Dew PointF,Humidity,Sea Level PressureIn,VisibilityMPH,Wind Direction,Wind SpeedMPH,Gust SpeedMPH,PrecipitationIn,Events,Conditions,WindDirDegrees,DateUTC
12:15 AM,12.2,6.8,79,30.43,10.0,ENE,5.8,-,N/A,,Clear,70,2013-01-09 07:15:00
12:35 AM,11.7,6.8,81,30.42,10.0,North,8.1,-,N/A,,Clear,10,2013-01-09 07:35:00
12:55 AM,15.6,9.0,75,30.42,10.0,NNE,11.5,-,N/A,,Clear,20,2013-01-09 07:55:00
1:15 AM,16.9,9.5,73,30.42,10.0,East,5.8,-,N/A,,Clear,80,2013-01-09 08:15:00
1:35 AM,10.2,5.7,82,30.44,10.0,Calm,Calm,-,N/A,,Clear,0,2013-01-09 08:35:00
1:55 AM,10.2,5.9,83,30.44,10.0,NNW,4.6,-,N/A,,Clear,340,2013-01-09 08:55:00
2:15 AM,13.1,8.2,81,30.43,10.0,North,6.9,-,N/A,,Clear,10,2013-01-09 09:15:00
2:35 AM,16.5,8.8,72,30.43,10.0,SSE,5.8,-,N/A,,Clear,150,2013-01-09 09:35:00
2:55 AM,8.6,4.6,84,30.43,10.0,Calm,Calm,-,N/A,,Clear,0,2013-01-09 09:55:00
3:15 AM,9.1,5.0,83,30.43,10.0,WNW,6.9,-,N/A,,Clear,290,2013-01-09 10:15:00
3:35 AM,10.8,6.1,81,30.43,10.0,WNW,3.5,-,N/A,,Clear,300,2013-01-09 10:35:00
3:55 AM,9.5,4.8,81,30.43,10.0,NW,3.5,-,N/A,,Clear,310,2013-01-09 10:55:00
4:15 AM,12.0,6.4,78,30.42,10.0,Calm,Calm,-,N/A,,Clear,0,2013-01-09 11:15:00
4:35 AM,9.5,4.5,80,30.43,10.0,Calm,Calm,-,N/A,,Clear,0,2013-01-09 11:35:00
4:55 AM,7.3,3.2,83,30.42,10.0,ENE,5.8,-,N/A,,Clear,70,2013-01-09 11:55:00
5:15 AM,8.8,5.0,85,30.42,10.0,ENE,6.9,-,N/A,,Clear,70,2013-01-09 12:15:00
5:55 AM,11.1,6.3,81,30.42,10.0,NE,4.6,-,N/A,,Clear,50,2013-01-09 12:55:00
6:15 AM,8.2,4.5,85,30.42,10.0,Calm,Calm,-,N/A,,Clear,0,2013-01-09 13:15:00
6:35 AM,7.7,3.6,83,30.42,10.0,Calm,Calm,-,N/A,,Clear,0,2013-01-09 13:35:00
6:55 AM,5.9,2.3,85,30.43,10.0,Calm,Calm,-,N/A,,Clear,0,2013-01-09 13:55:00
7:15 AM,8.1,4.1,84,30.43,10.0,Calm,Calm,-,N/A,,Clear,0,2013-01-09 14:15:00
7:35 AM,8.1,3.9,83,30.43,10.0,Calm,Calm,-,N/A,,Clear,0,2013-01-09 14:35:00
7:55 AM,7.2,3.4,85,30.44,10.0,Calm,Calm,-,N/A,,Clear,0,2013-01-09 14:55:00
8:15 AM,8.6,4.3,83,30.44,10.0,Calm,Calm,-,N/A,,Clear,0,2013-01-09 15:15:00
8:35 AM,10.9,5.5,79,30.44,10.0,Calm,Calm,-,N/A,,Clear,0,2013-01-09 15:35:00
8:55 AM,12.2,5.9,76,30.45,10.0,Calm,Calm,-,N/A,,Clear,0,2013-01-09 15:55:00
9:15 AM,13.1,6.1,74,30.45,10.0,Calm,Calm,-,N/A,,Clear,0,2013-01-09 16:15:00
9:35 AM,15.1,7.2,71,30.46,10.0,Calm,Calm,-,N/A,,Clear,0,2013-01-09 16:35:00
9:55 AM,15.6,8.1,72,30.45,10.0,NNE,6.9,-,N/A,,Clear,20,2013-01-09 16:55:00
10:15 AM,21.2,10.6,64,30.44,10.0,Calm,Calm,-,N/A,,Clear,0,2013-01-09 17:15:00
10:35 AM,20.7,10.4,65,30.43,10.0,SSE,4.6,-,N/A,,Clear,160,2013-01-09 17:35:00
11:15 AM,23.9,12.9,63,30.40,10.0,West,3.5,-,N/A,,Clear,280,2013-01-09 18:15:00
11:35 AM,24.1,13.5,64,30.39,10.0,WNW,6.9,-,N/A,,Clear,290,2013-01-09 18:35:00
11:55 AM,25.7,14.4,62,30.38,10.0,NNW,5.8,-,N/A,,Clear,340,2013-01-09 18:55:00
12:15 PM,29.5,14.0,53,30.36,10.0,NNE,3.5,-,N/A,,Clear,30,2013-01-09 19:15:00
12:35 PM,31.8,16.0,52,30.35,10.0,East,6.9,-,N/A,,Clear,80,2013-01-09 19:35:00
12:55 PM,32.0,16.9,54,30.33,10.0,ESE,6.9,-,N/A,,Clear,120,2013-01-09 19:55:00
1:15 PM,32.2,16.5,53,30.32,10.0,ESE,3.5,-,N/A,,Clear,120,2013-01-09 20:15:00
1:35 PM,33.8,16.9,50,30.32,10.0,South,3.5,-,N/A,,Clear,180,2013-01-09 20:35:00
1:55 PM,34.0,17.8,52,30.31,10.0,South,3.5,-,N/A,,Clear,170,2013-01-09 20:55:00
2:15 PM,34.9,17.1,48,30.31,10.0,Calm,Calm,-,N/A,,Clear,0,2013-01-09 21:15:00
2:35 PM,35.4,17.2,48,30.31,10.0,Calm,Calm,-,N/A,,Clear,0,2013-01-09 21:35:00
2:55 PM,35.8,17.8,48,30.30,10.0,Calm,Calm,-,N/A,,Clear,0,2013-01-09 21:55:00
3:15 PM,36.3,18.3,48,30.29,10.0,Calm,Calm,-,N/A,,Clear,0,2013-01-09 22:15:00
3:35 PM,37.0,17.8,46,30.28,10.0,SW,4.6,-,N/A,,Clear,220,2013-01-09 22:35:00
3:55 PM,38.3,18.9,46,30.28,10.0,SW,5.8,-,N/A,,Clear,220,2013-01-09 22:55:00
4:15 PM,37.6,19.8,49,30.27,10.0,SW,4.6,-,N/A,,Clear,230,2013-01-09 23:15:00
4:35 PM,35.8,22.8,59,30.27,10.0,South,5.8,-,N/A,,Clear,190,2013-01-09 23:35:00
4:55 PM,32.5,21.2,63,30.27,10.0,South,3.5,-,N/A,,Clear,180,2013-01-09 23:55:00
5:15 PM,29.1,19.4,67,30.26,10.0,Calm,Calm,-,N/A,,Clear,0,2013-01-10 00:15:00
5:35 PM,27.3,19.4,72,30.26,10.0,Calm,Calm,-,N/A,,Clear,0,2013-01-10 00:35:00
5:55 PM,25.5,17.8,72,30.26,10.0,East,5.8,-,N/A,,Clear,80,2013-01-10 00:55:00
6:15 PM,24.4,17.6,75,30.26,10.0,East,4.6,-,N/A,,Clear,80,2013-01-10 01:15:00
6:35 PM,23.7,16.7,75,30.26,10.0,NE,3.5,-,N/A,,Clear,50,2013-01-10 01:35:00
6:55 PM,23.5,16.2,73,30.25,10.0,North,5.8,-,N/A,,Clear,10,2013-01-10 01:55:00
7:15 PM,23.9,16.0,72,30.24,10.0,NNE,5.8,-,N/A,,Clear,20,2013-01-10 02:15:00
7:35 PM,23.2,15.4,72,30.23,10.0,NNE,5.8,-,N/A,,Clear,30,2013-01-10 02:35:00
7:55 PM,23.0,15.1,72,30.23,10.0,NNE,3.5,-,N/A,,Clear,20,2013-01-10 02:55:00
8:15 PM,22.1,14.9,74,30.22,10.0,Calm,Calm,-,N/A,,Clear,0,2013-01-10 03:15:00
8:35 PM,21.9,14.5,73,30.22,10.0,Calm,Calm,-,N/A,,Clear,0,2013-01-10 03:35:00
8:55 PM,19.9,14.4,79,30.21,10.0,Calm,Calm,-,N/A,,Clear,0,2013-01-10 03:55:00
9:15 PM,19.6,13.8,78,30.21,10.0,WSW,4.6,-,N/A,,Clear,240,2013-01-10 04:15:00
9:35 PM,18.7,13.6,81,30.20,10.0,Calm,Calm,-,N/A,,Clear,0,2013-01-10 04:35:00
9:55 PM,17.8,13.5,83,30.20,10.0,Calm,Calm,-,N/A,,Clear,0,2013-01-10 04:55:00
10:15 PM,19.8,14.4,80,30.19,10.0,NE,3.5,-,N/A,,Clear,40,2013-01-10 05:15:00
10:35 PM,16.7,13.3,86,30.18,10.0,NE,6.9,-,N/A,,Clear,50,2013-01-10 05:35:00
10:55 PM,16.0,11.7,83,30.17,10.0,NE,8.1,-,N/A,,Clear,50,2013-01-10 05:55:00
11:15 PM,17.4,12.6,81,30.15,10.0,ENE,6.9,-,N/A,,Clear,70,2013-01-10 06:15:00
11:35 PM,17.4,12.0,79,30.14,10.0,East,3.5,-,N/A,,Clear,80,2013-01-10 06:35:00
11:55 PM,16.3,11.7,82,30.13,10.0,NE,3.5,-,N/A,,Clear,50,2013-01-10 06:55:00